| time (UTC) | temp F | wind direction | speed MPH | gust MPH | rain 1hr in | rain 24hr in | rain mn in | humidity % | barometer mb |
| 20260506024019 | 50 | 266 | 10.0 | 11.0 | 0.00 | 0.00 | 0.00 | 85 | 1011.3 |
| 20260506023016 | 50 | 266 | 11.0 | 15.0 | 0.00 | 0.00 | 0.00 | 85 | 1011.4 |
| 20260506022043 | 50 | 266 | 11.0 | 14.0 | 0.00 | 0.00 | 0.00 | 85 | 1011.4 |
| 20260506021100 | 50 | 266 | 11.0 | 14.0 | 0.00 | 0.00 | 0.00 | 84 | 1011.4 |
| 20260506020037 | 49 | 266 | 10.0 | 13.0 | 0.00 | 0.00 | 0.00 | 85 | 1011.3 |
| 20260506015035 | 49 | 266 | 10.0 | 13.0 | 0.00 | 0.00 | 0.00 | 85 | 1011.6 |
| 20260506014032 | 49 | 266 | 8.0 | 10.0 | 0.00 | 0.00 | 0.00 | 85 | 1011.6 |
| 20260506013028 | 49 | 266 | 10.0 | 11.0 | 0.00 | 0.00 | 0.00 | 85 | 1011.6 |
| 20260506012026 | 49 | 266 | 11.0 | 14.0 | 0.00 | 0.00 | 0.00 | 85 | 1011.5 |
| 20260506011023 | 49 | 266 | 9.0 | 10.0 | 0.00 | 0.00 | 0.00 | 86 | 1011.7 |
| 20260506010020 | 49 | 266 | 8.0 | 11.0 | 0.00 | 0.00 | 0.00 | 86 | 1011.6 |
| 20260506005017 | 49 | 266 | 10.0 | 13.0 | 0.00 | 0.00 | 0.00 | 86 | 1011.8 |
| 20260506004044 | 49 | 266 | 9.0 | 10.0 | 0.00 | 0.00 | 0.00 | 86 | 1011.9 |
| 20260506003041 | 48 | 266 | 11.0 | 16.0 | 0.00 | 0.00 | 0.00 | 87 | 1012.1 |
| 20260506002058 | 48 | 266 | 6.0 | 9.0 | 0.00 | 0.00 | 0.00 | 87 | 1012.1 |
| 20260506001035 | 48 | 266 | 7.0 | 9.0 | 0.00 | 0.00 | 0.00 | 88 | 1012.2 |
| 20260506000033 | 47 | 267 | 5.0 | 7.0 | 0.00 | 0.00 | 0.00 | 88 | 1012.1 |
| 20260505235050 | 47 | 267 | 6.0 | 7.0 | 0.00 | 0.00 | 0.00 | 88 | 1012.4 |
| 20260505234027 | 48 | 266 | 6.0 | 7.0 | 0.00 | 0.00 | 0.00 | 87 | 1012.3 |
| 20260505233024 | 47 | 266 | 6.0 | 8.0 | 0.00 | 0.00 | 0.00 | 87 | 1012.4 |
| 20260505232021 | 47 | 267 | 7.0 | 9.0 | 0.00 | 0.00 | 0.00 | 88 | 1012.6 |
| 20260505231038 | 48 | 266 | 6.0 | 7.0 | 0.00 | 0.00 | 0.00 | 87 | 1012.4 |
| 20260505230015 | 48 | 266 | 5.0 | 7.0 | 0.00 | 0.00 | 0.00 | 87 | 1012.7 |
| 20260505225042 | 48 | 266 | 7.0 | 9.0 | 0.00 | 0.00 | 0.00 | 86 | 1012.5 |
| 20260505224040 | 49 | 266 | 7.0 | 8.0 | 0.00 | 0.00 | 0.00 | 86 | 1012.6 |
| 20260505223036 | 49 | 266 | 6.0 | 8.0 | 0.00 | 0.00 | 0.00 | 85 | 1012.6 |
| 20260505222033 | 49 | 266 | 10.0 | 14.0 | 0.00 | 0.00 | 0.00 | 84 | 1012.6 |
| 20260505221031 | 49 | 266 | 9.0 | 13.0 | 0.00 | 0.00 | 0.00 | 83 | 1012.7 |
| 20260505220048 | 50 | 266 | 6.0 | 8.0 | 0.00 | 0.00 | 0.00 | 82 | 1012.8 |
| 20260505215025 | 50 | 266 | 9.0 | 13.0 | 0.00 | 0.00 | 0.00 | 82 | 1012.9 |
| 20260505214022 | 49 | 266 | 9.0 | 11.0 | 0.00 | 0.00 | 0.00 | 81 | 1013.1 |
| 20260505213019 | 49 | 266 | 6.0 | 7.0 | 0.00 | 0.00 | 0.00 | 79 | 1012.9 |
| 20260505212017 | 49 | 266 | 7.0 | 9.0 | 0.00 | 0.00 | 0.00 | 79 | 1013.0 |
| 20260505211044 | 49 | 266 | 7.0 | 10.0 | 0.00 | 0.00 | 0.00 | 79 | 1013.1 |
| 20260505210041 | 49 | 266 | 6.0 | 8.0 | 0.00 | 0.00 | 0.00 | 80 | 1013.0 |
| 20260505205038 | 49 | 266 | 8.0 | 10.0 | 0.00 | 0.00 | 0.00 | 80 | 1013.2 |
| 20260505204035 | 49 | 266 | 7.0 | 9.0 | 0.00 | 0.00 | 0.00 | 79 | 1013.1 |
| 20260505203032 | 49 | 266 | 7.0 | 8.0 | 0.00 | 0.00 | 0.00 | 79 | 1012.9 |
| 20260505202029 | 49 | 266 | 7.0 | 9.0 | 0.00 | 0.00 | 0.00 | 80 | 1013.0 |
| 20260505201026 | 49 | 266 | 6.0 | 8.0 | 0.00 | 0.00 | 0.00 | 79 | 1012.7 |
| 20260505200024 | 49 | 266 | 8.0 | 10.0 | 0.00 | 0.00 | 0.00 | 79 | 1012.8 |
| 20260505195021 | 49 | 266 | 7.0 | 9.0 | 0.00 | 0.00 | 0.00 | 80 | 1012.7 |
| 20260505194018 | 49 | 266 | 7.0 | 9.0 | 0.00 | 0.00 | 0.00 | 79 | 1012.6 |
| 20260505193015 | 49 | 266 | 7.0 | 9.0 | 0.00 | 0.00 | 0.00 | 79 | 1012.5 |
| 20260505192043 | 49 | 266 | 10.0 | 13.0 | 0.00 | 0.00 | 0.00 | 79 | 1012.6 |
| 20260505191040 | 50 | 266 | 10.0 | 13.0 | 0.00 | 0.00 | 0.00 | 78 | 1012.5 |
| 20260505190037 | 50 | 266 | 10.0 | 14.0 | 0.00 | 0.00 | 0.00 | 77 | 1012.5 |
| 20260505185034 | 50 | 266 | 9.0 | 11.0 | 0.00 | 0.00 | 0.00 | 77 | 1012.4 |
| 20260505184051 | 50 | 266 | 10.0 | 13.0 | 0.00 | 0.00 | 0.00 | 77 | 1012.5 |
| 20260505183028 | 51 | 267 | 10.0 | 14.0 | 0.00 | 0.00 | 0.00 | 75 | 1012.3 |
| 20260505182025 | 51 | 269 | 11.0 | 15.0 | 0.00 | 0.00 | 0.00 | 74 | 1012.5 |
| 20260505181042 | 51 | 308 | 13.0 | 16.0 | 0.00 | 0.00 | 0.00 | 75 | 1012.5 |
| 20260505180020 | 52 | 352 | 15.0 | 18.0 | 0.00 | 0.00 | 0.00 | 75 | 1012.5 |
| 20260505175017 | 52 | 31 | 14.0 | 18.0 | 0.00 | 0.00 | 0.00 | 74 | 1012.5 |
| 20260505174044 | 53 | 35 | 17.0 | 19.0 | 0.00 | 0.00 | 0.00 | 74 | 1012.5 |
| 20260505173041 | 53 | 33 | 14.0 | 21.0 | 0.00 | 0.00 | 0.00 | 74 | 1012.4 |
| 20260505172039 | 54 | 34 | 13.0 | 21.0 | 0.00 | 0.00 | 0.00 | 74 | 1012.4 |
| 20260505171056 | 54 | 46 | 15.0 | 17.0 | 0.00 | 0.00 | 0.00 | 73 | 1012.3 |
| 20260505170033 | 54 | 27 | 14.0 | 18.0 | 0.00 | 0.00 | 0.00 | 73 | 1012.3 |
| 20260505165050 | 54 | 36 | 15.0 | 19.0 | 0.00 | 0.00 | 0.00 | 73 | 1012.4 |
| 20260505164027 | 54 | 40 | 15.0 | 18.0 | 0.00 | 0.00 | 0.00 | 73 | 1012.3 |
| 20260505163024 | 55 | 28 | 19.0 | 23.0 | 0.00 | 0.00 | 0.00 | 72 | 1012.4 |
| 20260505162021 | 55 | 40 | 16.0 | 22.0 | 0.00 | 0.00 | 0.00 | 72 | 1012.8 |
| 20260505161039 | 55 | 31 | 15.0 | 21.0 | 0.00 | 0.00 | 0.00 | 72 | 1012.3 |
| 20260505153037 | 56 | 27 | 11.0 | 16.0 | 0.00 | 0.00 | 0.00 | 70 | 1012.4 |
| 20260505152035 | 56 | 46 | 16.0 | 21.0 | 0.00 | 0.00 | 0.00 | 70 | 1012.4 |
| 20260505151032 | 56 | 23 | 12.0 | 16.0 | 0.00 | 0.00 | 0.00 | 69 | 1012.5 |
| 20260505125022 | 56 | 28 | 13.0 | 16.0 | 0.00 | 0.00 | 0.00 | 69 | 1013.2 |
| 20260505124019 | 56 | 46 | 12.0 | 16.0 | 0.00 | 0.00 | 0.00 | 69 | 1013.1 |
| 20260505123016 | 56 | 40 | 14.0 | 17.0 | 0.00 | 0.00 | 0.00 | 69 | 1013.1 |
| 20260505122043 | 55 | 40 | 14.0 | 18.0 | 0.00 | 0.00 | 0.00 | 70 | 1013.3 |
| 20260505121040 | 55 | 78 | 7.0 | 11.0 | 0.00 | 0.00 | 0.00 | 71 | 1013.2 |
| 20260505120037 | 55 | 47 | 10.0 | 11.0 | 0.00 | 0.00 | 0.00 | 71 | 1013.2 |
| 20260505115035 | 55 | 36 | 12.0 | 16.0 | 0.00 | 0.00 | 0.00 | 72 | 1013.2 |
| 20260505114032 | 55 | 44 | 8.0 | 13.0 | 0.00 | 0.00 | 0.00 | 71 | 1013.6 |
| 20260505113029 | 55 | 48 | 10.0 | 14.0 | 0.00 | 0.00 | 0.00 | 71 | 1013.4 |
| 20260505112026 | 54 | 50 | 12.0 | 15.0 | 0.00 | 0.00 | 0.00 | 71 | 1013.6 |
| 20260505111023 | 54 | 25 | 10.0 | 11.0 | 0.00 | 0.00 | 0.00 | 72 | 1013.8 |
| 20260505102038 | 53 | 351 | 9.0 | 13.0 | 0.00 | 0.02 | 0.00 | 74 | 1014.0 |
| 20260505101036 | 53 | 42 | 7.0 | 10.0 | 0.00 | 0.07 | 0.00 | 74 | 1014.2 |
| 20260505100033 | 55 | 46 | 7.0 | 8.0 | 0.00 | 0.11 | 0.00 | 72 | 1014.2 |
| 20260505095050 | 54 | 45 | 11.0 | 13.0 | 0.00 | 0.11 | 0.00 | 74 | 1014.0 |
| 20260505094028 | 52 | 50 | 12.0 | 17.0 | 0.00 | 0.11 | 0.00 | 76 | 1014.0 |
| 20260505093025 | 53 | 11 | 10.0 | 13.0 | 0.00 | 0.11 | 0.00 | 75 | 1013.8 |
| 20260505092042 | 54 | 43 | 12.0 | 16.0 | 0.00 | 0.11 | 0.00 | 75 | 1013.9 |
| 20260505091039 | 53 | 68 | 11.0 | 17.0 | 0.00 | 0.11 | 0.00 | 75 | 1013.8 |
| 20260505090017 | 53 | 30 | 10.0 | 13.0 | 0.00 | 0.11 | 0.00 | 76 | 1013.8 |
| 20260505085044 | 53 | 34 | 8.0 | 13.0 | 0.00 | 0.11 | 0.00 | 77 | 1014.0 |
| 20260505084041 | 53 | 36 | 17.0 | 19.0 | 0.00 | 0.11 | 0.00 | 76 | 1014.1 |
| 20260505083038 | 53 | 36 | 15.0 | 18.0 | 0.00 | 0.11 | 0.00 | 77 | 1014.0 |
| 20260505082055 | 53 | 43 | 12.0 | 15.0 | 0.00 | 0.11 | 0.00 | 78 | 1014.2 |
| 20260505081033 | 52 | 355 | 10.0 | 13.0 | 0.00 | 0.11 | 0.00 | 78 | 1014.3 |
| 20260505080050 | 52 | 41 | 9.0 | 10.0 | 0.00 | 0.11 | 0.00 | 77 | 1014.0 |
| 20260505075027 | 52 | 43 | 10.0 | 11.0 | 0.00 | 0.11 | 0.00 | 79 | 1014.3 |
| 20260505074025 | 51 | 38 | 9.0 | 13.0 | 0.00 | 0.11 | 0.00 | 79 | 1014.4 |
| 20260505073022 | 51 | 20 | 7.0 | 9.0 | 0.00 | 0.11 | 0.00 | 80 | 1014.6 |
| 20260505072019 | 50 | 39 | 6.0 | 7.0 | 0.00 | 0.11 | 0.00 | 81 | 1014.6 |
| 20260505071017 | 51 | 54 | 5.0 | 8.0 | 0.00 | 0.11 | 0.00 | 80 | 1014.8 |
| 20260505070044 | 50 | 59 | 5.0 | 8.0 | 0.00 | 0.11 | 0.00 | 81 | 1014.7 |
| 20260505065041 | 50 | 49 | 6.0 | 8.0 | 0.00 | 0.11 | 0.00 | 82 | 1014.8 |
| 20260505064059 | 50 | 44 | 8.0 | 14.0 | 0.00 | 0.11 | 0.00 | 83 | 1014.6 |
| 20260505063036 | 49 | 40 | 8.0 | 10.0 | 0.00 | 0.11 | 0.00 | 83 | 1014.7 |
| 20260505062033 | 50 | 21 | 8.0 | 9.0 | 0.00 | 0.11 | 0.00 | 83 | 1014.7 |
| 20260505061051 | 50 | 36 | 8.0 | 10.0 | 0.00 | 0.11 | 0.00 | 84 | 1014.7 |
| 20260505060028 | 49 | 289 | 8.0 | 10.0 | 0.00 | 0.11 | 0.00 | 85 | 1014.5 |
| 20260505055145 | 49 | 267 | 6.0 | 7.0 | 0.00 | 0.11 | 0.00 | 88 | 1014.6 |
| 20260505054023 | 49 | 266 | 5.0 | 7.0 | 0.00 | 0.11 | 0.00 | 88 | 1014.6 |
| 20260505053020 | 49 | 266 | 5.0 | 7.0 | 0.00 | 0.11 | 0.00 | 88 | 1014.5 |
| 20260505052017 | 49 | 266 | 6.0 | 8.0 | 0.00 | 0.11 | 0.00 | 88 | 1014.4 |
| 20260505051044 | 49 | 266 | 4.0 | 6.0 | 0.00 | 0.11 | 0.00 | 88 | 1014.3 |
| 20260505041027 | 49 | 266 | 6.0 | 8.0 | 0.00 | 0.11 | 0.00 | 90 | 1014.4 |
| 20260505040045 | 49 | 266 | 3.0 | 4.0 | 0.00 | 0.11 | 0.00 | 90 | 1014.5 |
| 20260505035022 | 49 | 266 | 4.0 | 6.0 | 0.00 | 0.11 | 0.00 | 90 | 1014.1 |
| 20260505034019 | 49 | 266 | 3.0 | 4.0 | 0.00 | 0.11 | 0.00 | 90 | 1014.3 |
| 20260505033016 | 49 | 266 | 4.0 | 4.0 | 0.00 | 0.11 | 0.00 | 90 | 1014.4 |
| 20260505032044 | 49 | 266 | 4.0 | 6.0 | 0.00 | 0.11 | 0.00 | 91 | 1014.2 |
| 20260505031041 | 49 | 266 | 3.0 | 6.0 | 0.00 | 0.11 | 0.00 | 91 | 1014.3 |
| 20260505030038 | 49 | 266 | 4.0 | 6.0 | 0.00 | 0.11 | 0.00 | 91 | 1014.1 |
| 20260505025035 | 49 | 266 | 5.0 | 8.0 | 0.00 | 0.11 | 0.00 | 90 | 1014.4 |